{"data":{"norad_id":59789,"intl_designator":"2024-093H","name":"STARLINK-31863","alt_names":[],"object_type":"PAYLOAD","status":"ACTIVE","operator":null,"country":"US","launch_date":"2024-05-18","launch_site_code":"AFETR","launch_vehicle":null,"mission":null,"orbit_class":"UNKNOWN","rcs_meters":null,"size_class":null,"mass_kg":null,"dimensions":null,"purposes":["comms"],"wikipedia_slug":null,"has_3d_model":false,"image_url":null,"decayed_at":null,"tle_current":{"epoch":"2026-05-25T00:40:14.742624Z","epoch_age_seconds":72970,"freshness":"FRESH","line1":"1 59789U 24093H   26145.02794841 -.00000881  00000+0 -22487-4 0  9994","line2":"2 59789  43.0027 137.5015 0001395 273.8877  86.1815 15.27575671114379","mean_motion":15.27575671,"eccentricity":0.0001395,"inclination_deg":43.0027,"raan_deg":137.5015,"arg_perigee_deg":273.8877,"mean_anomaly_deg":86.1815,"bstar":-2.2487e-5,"rev_number":11437,"period_min":94.267015856395,"perigee_km":482.10492138493,"apogee_km":484.0191959223,"semimajor_km":6861.1990586536,"source":"CELESTRAK","updated_at":"2026-05-25T13:38:19.081582Z"}}}